CZ-6A DEB, 54597

Orbit data source: Space-Track

CZ-6A DEB, 54597 is space debris in SSO originally from a launch on Fri, 11 Nov 2022 UTC launched from the Taiyaun Space Center, China (TSC). Debris objects in space refer to the collection of defunct objects orbiting the Earth. Examples of debris include non-operational satellites, rocket bodies, and fragments generated from explosions, collisions, or faulty payload assembly.

Loading next visibility...
Identifier
54597, 2022-151MX
Orbit
SSO
Country
Flag of CNCN / PRC
Related business
Manufacturer
SAST
Mission
Spacecraft
Bus & Motor
Unknown
Mass
Unknown
Launch date (UTC)
2022-11-11 (4 years ago)
Launch vehicle
Unknown
Launch site
Taiyaun Space Center, China (TSC)
Object type
Payload
Rocket body
Debris
Shape & HBR
Unknown shape, 0.1 m
Radar Cross Section
Small (<0.1 m²)

Expand to show TLE details & history
Last TLE update: 20 hours ago

TLE from 20 hours ago
0 CZ-6A DEB
1 54597U 22151MX  26236.05829330  .00001463  00000-0  50077-3 0  9996
2 54597  98.6560 261.7449 0069160 226.2757 133.2689 14.36428538196969
Epoch: 2026-08-24T01:23Z
TLE epoch observation values (Epoch: 2026-08-24T01:23:56.541Z)
Latitude
0.00001°
Longitude
-91.58614°
Altitude
807.335 km
Speed
7.432 km/s
True Right ascension
17h 26m 58s
True Declination
0° 00' 00"
Sunlit
Object was in daylight at epoch
Visualization orbit readout
Latitude
Unknown
Longitude
Unknown
Altitude
Unknown
Speed
Unknown
Apparent Right ascension
Unknown
Apparent Declination
Unknown
Sunlit
N/A
Visualization observer readout
Local Sidereal Time
12:09:05
Azimuth
Unknown
Elevation
Unknown
Doppler factor
Unknown
Orbital elements
Apogee altitude
816.876 km
Perigee altitude
718.038 km
Semi-major axis
7,145.594 km
Eccentricity
0.00692
Inclination
98.656°
RAAN
261.7449°
Arg. of periapsis
226.2757°
True anomaly
133.84256°
Mean anomaly
133.2689°
Eccentric anomaly
133.55607°
Mean motion
3.59324 °/min
Orbital period
100.19 mins
BSTAR
0.00050077
Loading maneuver chart data...
Computing Atmospheric mass density...
Loading historical data...
Loading historical data...
Loading historical data...
Loading historical data...
Loading historical data...
Loading historical data...
Loading historical data...

Documentation

Showing up to 5 results
|